Temp
21 21 20 20 18 17 16 17 18 18 17 15 12 15 14 12 12 12 12 12 12 12 11 12 11 10 10 10 10 10 11 10
21 21 20 19 18 17 16 15 16 18 17 15 15 16 14 12 12 12 11 11 11 11 12 11 10 10 10 10 10 10 9 10
20 20 20 19 19 18 16 16 15 18 17 16 15 15 14 12 12 12 11 12 11 11 11 11 11 10 10 10 10 10 10 9
20 20 20 20 18 19 18 17 14 15 16 15 14 14 14 11 12 12 11 11 11 10 10 10 11 10 10 10 11 10 10 10
18 19 19 20 19 18 17 16 14 12 13 15 17 17 15 12 11 13 10 11 11 10 10 10 10 10 10 10 10 10 10 10
17 18 18 19 19 17 16 15 14 12 12 15 16 15 12 11 10 12 10 10 10 10 10 10 10 10 10 9 10 9 10 10
15 16 17 18 19 17 15 14 14 12 13 14 16 16 13 11 12 10 9 9 9 9 10 10 10 10 10 10 10 10 9 10
15 16 17 18 18 15 14 14 13 12 15 14 15 16 14 12 11 10 10 10 9 9 9 10 10 10 10 10 10 10 9 10
14 16 17 17 17 15 14 13 13 11 14 14 15 16 12 11 11 10 10 9 8 8 9 10 9 9 10 10 10 9 10 9
11 15 16 16 16 14 13 12 12 11 11 13 15 15 12 10 10 10 10 11 9 9 9 9 9 9 9 9 9 9 9 9
10 13 15 16 15 13 11 11 11 11 10 12 15 14 11 10 10 12 11 11 9 9 9 9 9 9 9 9 9 9 9 9
7 9 12 13 13 12 11 11 11 11 10 12 13 13 11 10 9 12 11 11 9 9 8 9 9 9 9 9 9 9 9 8
5 7 9 11 12 11 10 10 10 10 10 11 11 11 10 10 9 10 11 10 9 9 8 8 9 9 9 9 9 9 8 8
3 4 7 9 9 9 10 9 9 9 10 11 11 11 10 9 9 8 10 10 10 9 9 9 10 10 10 10 9 9 9 8
2 2 3 8 8 9 9 9 9 9 9 10 10 11 9 9 8 8 9 9 9 9 9 9 10 10 10 10 10 10 9 9
3 0 1 5 7 8 9 9 9 9 10 9 9 10 9 9 9 9 9 9 9 8 8 8 8 9 9 9 9 9 9 9
3 -0 -1 1 4 6 8 9 9 9 9 8 9 9 9 9 9 9 9 9 8 8 8 8 8 8 8 8 8 8 9 8
0 0 -1 -0 2 3 5 8 8 8 8 8 8 8 8 9 9 9 8 8 8 8 8 8 8 7 7 8 8 8 8 8
0 1 0 -0 0 3 4 6 6 7 7 7 8 8 8 9 9 8 8 8 8 8 8 8 7 8 8 8 8 8 7 8
Height
1439 1441 1442 1444 1446 1447 1450 1452 1454 1459 1464 1467 1470 1470 1474 1476 1477 1479 1482 1484 1486 1489 1490 1490 1490 1490 1493 1495 1502 1509 1517 1525
1432 1434 1436 1438 1438 1440 1442 1445 1448 1452 1457 1460 1463 1464 1469 1472 1473 1475 1478 1480 1482 1484 1486 1487 1488 1489 1492 1496 1500 1505 1515 1524
1424 1426 1428 1430 1432 1432 1434 1438 1441 1443 1449 1455 1459 1461 1463 1468 1469 1471 1474 1476 1478 1481 1484 1486 1487 1489 1491 1495 1499 1502 1512 1520
1416 1417 1419 1422 1424 1426 1427 1430 1435 1437 1443 1449 1453 1457 1459 1463 1464 1466 1469 1472 1474 1477 1480 1484 1486 1488 1492 1495 1498 1504 1510 1517
1409 1410 1410 1413 1417 1418 1420 1423 1428 1432 1437 1440 1444 1448 1453 1457 1459 1460 1464 1468 1471 1473 1476 1479 1484 1486 1490 1494 1497 1501 1506 1511
1403 1402 1402 1404 1408 1411 1413 1416 1421 1424 1429 1434 1439 1445 1449 1454 1455 1456 1460 1464 1467 1470 1472 1474 1477 1482 1485 1490 1495 1498 1502 1508
1398 1395 1395 1395 1398 1402 1405 1407 1412 1417 1421 1427 1434 1439 1443 1448 1450 1453 1456 1459 1462 1465 1468 1470 1474 1479 1481 1485 1491 1495 1498 1504
1392 1388 1386 1386 1388 1390 1395 1401 1405 1407 1413 1420 1428 1434 1439 1443 1447 1450 1453 1454 1456 1459 1463 1465 1468 1472 1478 1481 1484 1489 1494 1498
1386 1381 1378 1380 1382 1383 1388 1393 1399 1401 1407 1415 1422 1430 1436 1440 1442 1446 1448 1451 1453 1454 1457 1461 1464 1469 1474 1477 1480 1482 1489 1493
1383 1376 1373 1374 1377 1380 1384 1390 1395 1398 1404 1410 1417 1425 1431 1436 1439 1441 1443 1445 1448 1451 1453 1457 1461 1465 1470 1473 1477 1482 1485 1487
1382 1377 1372 1371 1374 1376 1380 1385 1391 1396 1403 1407 1415 1421 1427 1432 1435 1437 1439 1442 1445 1448 1451 1454 1457 1461 1465 1469 1473 1476 1479 1482
1383 1378 1374 1370 1372 1375 1377 1384 1389 1393 1399 1406 1413 1417 1424 1428 1431 1433 1436 1439 1443 1447 1449 1452 1455 1458 1461 1465 1468 1471 1474 1477
1387 1381 1375 1372 1373 1375 1378 1384 1388 1392 1397 1405 1410 1414 1420 1424 1427 1430 1434 1437 1440 1445 1448 1450 1453 1455 1458 1461 1465 1468 1471 1474
1390 1385 1380 1374 1375 1377 1381 1383 1387 1391 1397 1403 1407 1412 1417 1422 1424 1428 1431 1434 1438 1441 1445 1448 1451 1453 1456 1459 1461 1464 1466 1468
1396 1392 1387 1379 1375 1380 1380 1383 1388 1392 1397 1401 1405 1410 1415 1419 1422 1425 1429 1433 1436 1439 1443 1446 1448 1451 1455 1458 1460 1462 1464 1466
1403 1401 1392 1382 1379 1379 1379 1385 1389 1394 1397 1401 1405 1410 1412 1415 1419 1423 1427 1431 1434 1438 1441 1444 1446 1449 1452 1454 1456 1458 1460 1462
1405 1407 1399 1389 1383 1381 1385 1387 1390 1391 1394 1400 1405 1409 1411 1414 1417 1422 1426 1429 1433 1436 1438 1441 1444 1447 1448 1449 1452 1453 1455 1457
1406 1409 1402 1395 1391 1390 1388 1388 1392 1394 1397 1399 1402 1405 1409 1411 1414 1421 1425 1428 1431 1433 1436 1438 1441 1443 1442 1444 1446 1449 1451 1452
1415 1410 1408 1403 1398 1395 1392 1391 1395 1395 1397 1399 1403 1407 1407 1406 1412 1418 1421 1423 1427 1429 1430 1432 1433 1434 1436 1438 1440 1442 1443 1446
Wind_Speed
19 19 18 17 18 20 24 27 32 34 31 27 20 23 23 22 20 21 20 21 24 23 21 20 16 24 30 41 44 41 38 25
26 23 21 18 18 21 24 27 30 35 35 33 29 27 25 26 23 20 21 21 21 23 22 17 15 26 27 26 41 40 40 31
30 29 28 23 22 23 24 27 31 37 38 35 30 27 26 26 24 22 21 21 21 25 26 20 18 22 27 23 36 43 41 31
32 33 33 30 26 28 27 27 30 35 35 32 29 26 26 28 26 25 23 21 22 22 31 25 22 22 26 29 28 29 31 32
27 30 31 31 28 28 26 26 31 32 34 36 37 31 28 23 22 23 24 24 26 25 22 31 32 28 27 31 34 39 40 36
22 26 28 30 28 24 26 26 30 32 37 38 35 27 20 16 18 19 22 21 24 23 26 35 37 30 30 33 34 41 42 39
15 16 22 27 28 26 25 27 32 34 38 39 36 29 22 16 17 16 16 22 20 27 25 28 29 28 30 35 36 35 43 41
18 16 15 23 27 27 25 28 34 40 44 39 36 32 24 18 15 15 15 18 19 21 30 28 32 33 31 28 34 36 40 38
22 19 15 17 22 24 26 30 33 40 44 40 36 29 22 17 16 14 14 14 15 17 23 29 29 29 29 29 30 34 41 41
26 19 14 12 19 21 23 27 29 35 41 41 37 29 22 17 15 15 14 13 14 14 18 23 24 24 25 28 25 28 30 36
27 21 13 10 14 16 21 26 30 32 36 39 35 29 22 17 15 15 13 14 13 13 16 21 22 20 26 27 26 28 26 34
25 23 13 2 9 14 20 24 29 30 37 36 32 26 22 19 15 15 15 15 17 14 14 16 19 21 23 24 24 28 30 33
28 22 13 4 7 12 18 24 27 28 33 31 28 24 22 18 16 16 16 16 19 18 15 14 15 16 18 18 19 19 21 24
29 29 15 8 7 11 15 18 22 26 25 30 27 24 21 17 16 16 17 17 18 19 18 18 16 15 14 12 12 13 15 17
29 30 22 14 13 10 12 16 19 21 24 26 23 22 18 16 15 16 17 18 17 18 17 16 17 17 17 16 16 14 15 17
27 29 27 18 17 13 15 15 15 21 21 20 18 18 15 16 16 15 15 16 17 17 17 17 18 20 22 23 23 22 22 21
29 25 26 26 21 20 17 19 22 22 22 19 16 14 12 11 10 15 15 15 15 15 16 17 17 17 18 20 21 23 25 27
22 25 27 28 26 23 23 20 17 19 18 18 17 16 16 14 11 9 11 13 13 15 15 15 15 17 22 22 22 24 22 25
22 25 26 27 24 23 25 23 19 19 18 17 14 13 13 11 11 11 12 14 16 17 18 17 19 23 22 21 23 26 29 29
Wind_Direction
239 240 243 242 232 223 218 226 229 225 225 222 218 226 222 220 217 217 225 229 232 234 228 235 232 237 222 210 212 193 188 180
246 245 248 245 237 223 223 219 222 222 222 218 221 227 221 222 219 217 219 227 231 220 216 214 216 222 207 202 208 188 189 189
250 247 246 246 241 238 224 223 218 225 220 221 223 224 224 225 222 221 224 226 227 219 213 213 212 211 217 198 202 185 189 177
255 249 244 241 239 242 236 227 214 217 213 211 215 214 221 215 222 224 218 221 227 225 213 206 195 191 199 191 188 193 183 189
261 255 250 240 235 238 231 224 211 212 206 212 219 220 221 221 222 226 223 220 226 227 231 211 210 215 208 205 202 200 195 197
277 258 249 239 234 233 229 218 207 205 206 212 214 209 211 212 210 220 218 221 223 228 233 225 227 207 225 215 205 206 207 206
291 268 253 241 231 226 221 212 204 202 204 207 209 208 205 203 208 205 208 219 216 221 226 223 227 227 218 223 216 210 210 215
305 285 268 238 220 210 209 205 200 203 208 203 205 211 209 206 202 202 201 213 223 216 219 225 228 227 226 238 220 218 221 220
319 297 276 239 215 204 203 200 196 203 208 201 202 206 203 201 208 201 202 213 217 219 216 220 226 225 233 236 230 238 219 228
336 323 287 234 214 204 199 195 195 203 205 200 198 198 198 196 198 200 207 212 210 204 204 211 218 216 226 229 227 229 239 234
348 335 320 219 198 191 193 191 198 203 202 204 194 196 198 195 199 202 204 207 195 194 191 205 205 214 218 223 230 230 238 233
357 346 338 165 184 183 192 194 195 199 206 201 189 189 194 196 195 202 201 202 192 192 192 202 209 215 221 225 226 234 237 241
6 3 358 66 153 176 182 182 194 201 208 195 183 186 191 192 191 199 200 199 196 196 189 190 192 196 198 209 217 226 230 241
3 6 23 71 142 167 173 187 202 202 200 189 183 186 188 187 186 193 197 200 202 199 198 196 193 192 199 205 213 223 233 238
6 358 11 77 107 153 176 187 197 198 188 179 181 187 185 182 184 193 198 200 204 209 208 207 207 210 211 217 225 231 228 230
7 352 5 68 92 117 145 165 181 181 170 165 166 170 176 184 189 193 198 203 208 211 213 217 222 221 219 222 226 231 232 235
27 358 6 45 75 91 134 148 154 160 157 159 156 155 151 156 179 200 205 210 212 215 217 221 222 223 236 239 235 236 238 240
36 17 18 41 57 76 98 123 133 151 152 152 156 165 170 162 162 188 211 219 223 225 226 225 225 227 235 236 236 234 240 243
36 35 25 40 48 62 74 87 102 114 118 123 136 151 160 159 182 205 217 224 225 227 231 233 225 236 244 246 242 238 236 235